| time (UTC) | temp F | wind direction | speed MPH | gust MPH | rain 1hr in | rain 24hr in | rain mn in | humidity % | barometer mb |
| 20260507115504 | 38 | 217 | 1.0 | 4.0 | 0.00 | 0.00 | 0.00 | 87 | 1015.5 |
| 20260507115006 | 38 | 228 | 1.0 | 4.0 | 0.00 | 0.00 | 0.00 | 88 | 1015.5 |
| 20260507114610 | 0 | 0.0 | 0.0 | 0.00 | 0.01 | 0.00 | 1020.9 | ||
| 20260507114526 | 38 | 247 | 0.0 | 1.0 | 0.00 | 0.00 | 0.00 | 90 | 1015.4 |
| 20260507114007 | 37 | 247 | 0.0 | 1.0 | 0.00 | 0.00 | 0.00 | 91 | 1015.4 |
| 20260507113509 | 37 | 247 | 0.0 | 0.0 | 0.00 | 0.00 | 0.00 | 91 | 1015.5 |
| 20260507113102 | 0 | 0.0 | 0.0 | 0.00 | 0.01 | 0.00 | 1020.8 | ||
| 20260507113024 | 36 | 247 | 0.0 | 0.0 | 0.00 | 0.00 | 0.00 | 90 | 1015.4 |
| 20260507112507 | 36 | 247 | 0.0 | 0.0 | 0.00 | 0.00 | 0.00 | 90 | 1015.4 |
| 20260507112007 | 36 | 247 | 0.0 | 0.0 | 0.00 | 0.00 | 0.00 | 90 | 1015.3 |
| 20260507111555 | 0 | 321 | 0.0 | 3.0 | 0.00 | 0.01 | 0.00 | 36 | 1021.0 |
| 20260507111516 | 35 | 247 | 0.0 | 0.0 | 0.00 | 0.00 | 0.00 | 90 | 1015.3 |
| 20260507111003 | 35 | 247 | 0.0 | 0.0 | 0.00 | 0.00 | 0.00 | 89 | 1015.3 |
| 20260507110503 | 35 | 247 | 0.0 | 0.0 | 0.00 | 0.00 | 0.00 | 89 | 1015.2 |
| 20260507110051 | 55 | 298 | 0.0 | 3.0 | 0.00 | 0.01 | 0.00 | 36 | 1020.9 |
| 20260507110010 | 35 | 247 | 0.0 | 0.0 | 0.00 | 0.00 | 0.00 | 89 | 1015.2 |
| 20260507105505 | 35 | 247 | 0.0 | 0.0 | 0.00 | 0.00 | 0.00 | 89 | 1015.2 |
| 20260507105003 | 34 | 247 | 0.0 | 0.0 | 0.00 | 0.00 | 0.00 | 89 | 1015.2 |
| 20260507104547 | 55 | 314 | 0.0 | 2.0 | 0.00 | 0.01 | 0.00 | 36 | 1020.6 |
| 20260507104516 | 34 | 247 | 0.0 | 0.0 | 0.00 | 0.00 | 0.00 | 88 | 1015.2 |
| 20260507104007 | 35 | 247 | 0.0 | 0.0 | 0.00 | 0.00 | 0.00 | 89 | 1015.2 |
| 20260507103504 | 35 | 247 | 0.0 | 0.0 | 0.00 | 0.00 | 0.00 | 89 | 1015.3 |
| 20260507103044 | 55 | 34 | 0.0 | 3.0 | 0.00 | 0.01 | 0.00 | 35 | 1020.3 |
| 20260507103023 | 35 | 247 | 0.0 | 0.0 | 0.00 | 0.00 | 0.00 | 88 | 1015.3 |
| 20260507102507 | 35 | 247 | 0.0 | 0.0 | 0.00 | 0.00 | 0.00 | 88 | 1015.2 |
| 20260507102007 | 35 | 247 | 0.0 | 0.0 | 0.00 | 0.00 | 0.00 | 88 | 1015.2 |
| 20260507101544 | 55 | 287 | 0.0 | 0.0 | 0.00 | 0.01 | 0.00 | 36 | 1020.3 |
| 20260507101524 | 35 | 247 | 0.0 | 0.0 | 0.00 | 0.00 | 0.00 | 88 | 1015.2 |
| 20260507101014 | 35 | 247 | 0.0 | 0.0 | 0.00 | 0.00 | 0.00 | 88 | 1015.2 |
| 20260507100509 | 35 | 247 | 0.0 | 0.0 | 0.00 | 0.00 | 0.00 | 88 | 1015.3 |
| 20260507100041 | 55 | 287 | 0.0 | 0.0 | 0.00 | 0.01 | 0.00 | 36 | 1020.0 |
| 20260507100008 | 35 | 247 | 0.0 | 0.0 | 0.00 | 0.00 | 0.00 | 88 | 1015.3 |
| 20260507095504 | 35 | 247 | 0.0 | 0.0 | 0.00 | 0.00 | 0.00 | 88 | 1015.4 |
| 20260507095003 | 36 | 247 | 0.0 | 0.0 | 0.00 | 0.00 | 0.00 | 88 | 1015.4 |
| 20260507094535 | 55 | 287 | 0.0 | 0.0 | 0.00 | 0.01 | 0.00 | 36 | 1019.7 |
| 20260507094513 | 36 | 247 | 0.0 | 0.0 | 0.00 | 0.00 | 0.00 | 87 | 1015.4 |
| 20260507094004 | 36 | 247 | 0.0 | 0.0 | 0.00 | 0.00 | 0.00 | 87 | 1015.2 |
| 20260507093505 | 36 | 247 | 0.0 | 0.0 | 0.00 | 0.00 | 0.00 | 87 | 1015.2 |
| 20260507093032 | 55 | 276 | 0.0 | 0.0 | 0.00 | 0.01 | 0.00 | 36 | 1019.3 |
| 20260507093015 | 36 | 247 | 0.0 | 0.0 | 0.00 | 0.00 | 0.00 | 87 | 1015.3 |
| 20260507092504 | 36 | 247 | 0.0 | 0.0 | 0.00 | 0.00 | 0.00 | 86 | 1015.4 |
| 20260507092007 | 36 | 247 | 0.0 | 0.0 | 0.00 | 0.00 | 0.00 | 86 | 1015.3 |
| 20260507091529 | 55 | 348 | 0.0 | 4.0 | 0.00 | 0.01 | 0.00 | 36 | 1019.0 |
| 20260507091524 | 36 | 247 | 0.0 | 0.0 | 0.00 | 0.00 | 0.00 | 86 | 1015.3 |
| 20260507091009 | 37 | 247 | 0.0 | 0.0 | 0.00 | 0.00 | 0.00 | 86 | 1015.3 |
| 20260507090507 | 37 | 247 | 0.0 | 0.0 | 0.00 | 0.00 | 0.00 | 85 | 1015.3 |
| 20260507090035 | 37 | 247 | 0.0 | 0.0 | 0.00 | 0.00 | 0.00 | 85 | 1015.3 |
| 20260507090026 | 55 | 300 | 0.0 | 5.0 | 0.00 | 0.01 | 0.00 | 35 | 1018.2 |
| 20260507085508 | 37 | 247 | 0.0 | 0.0 | 0.00 | 0.00 | 0.00 | 85 | 1015.4 |
| 20260507085006 | 37 | 247 | 0.0 | 0.0 | 0.00 | 0.00 | 0.00 | 84 | 1015.4 |
| 20260507084523 | 55 | 17 | 1.0 | 6.0 | 0.00 | 0.01 | 0.00 | 32 | 1018.2 |
| 20260507084510 | 37 | 247 | 0.0 | 0.0 | 0.00 | 0.00 | 0.00 | 84 | 1015.4 |
| 20260507084005 | 37 | 247 | 0.0 | 0.0 | 0.00 | 0.00 | 0.00 | 84 | 1015.4 |
| 20260507083503 | 37 | 247 | 0.0 | 0.0 | 0.00 | 0.00 | 0.00 | 84 | 1015.4 |
| 20260507083022 | 55 | 341 | 1.0 | 5.0 | 0.00 | 0.01 | 0.00 | 31 | 1018.2 |
| 20260507083016 | 37 | 247 | 0.0 | 0.0 | 0.00 | 0.00 | 0.00 | 84 | 1015.4 |
| 20260507082504 | 37 | 247 | 0.0 | 0.0 | 0.00 | 0.00 | 0.00 | 83 | 1015.3 |
| 20260507082005 | 37 | 247 | 0.0 | 0.0 | 0.00 | 0.00 | 0.00 | 83 | 1015.2 |
| 20260507081520 | 37 | 247 | 0.0 | 0.0 | 0.00 | 0.00 | 0.00 | 83 | 1015.3 |
| 20260507081007 | 38 | 247 | 0.0 | 0.0 | 0.00 | 0.00 | 0.00 | 83 | 1015.4 |
| 20260507080510 | 38 | 247 | 0.0 | 1.0 | 0.00 | 0.00 | 0.00 | 83 | 1015.5 |
| 20260507080022 | 38 | 247 | 0.0 | 1.0 | 0.00 | 0.00 | 0.00 | 83 | 1015.4 |
| 20260507080017 | 55 | 317 | 0.0 | 0.0 | 0.00 | 0.01 | 0.00 | 32 | 1018.5 |
| 20260507075508 | 38 | 247 | 0.0 | 1.0 | 0.00 | 0.00 | 0.00 | 83 | 1015.4 |
| 20260507075006 | 38 | 247 | 0.0 | 1.0 | 0.00 | 0.00 | 0.00 | 83 | 1015.4 |
| 20260507074538 | 38 | 247 | 0.0 | 1.0 | 0.00 | 0.00 | 0.00 | 83 | 1015.4 |
| 20260507074515 | 55 | 329 | 0.0 | 0.0 | 0.00 | 0.01 | 0.00 | 31 | 1018.6 |
| 20260507074008 | 38 | 247 | 0.0 | 0.0 | 0.00 | 0.00 | 0.00 | 82 | 1015.4 |
| 20260507073507 | 38 | 247 | 0.0 | 0.0 | 0.00 | 0.00 | 0.00 | 82 | 1015.5 |
| 20260507073013 | 55 | 329 | 0.0 | 0.0 | 0.00 | 0.01 | 0.00 | 31 | 1018.3 |
| 20260507073010 | 38 | 247 | 0.0 | 0.0 | 0.00 | 0.00 | 0.00 | 82 | 1015.5 |
| 20260507072507 | 38 | 247 | 0.0 | 0.0 | 0.00 | 0.00 | 0.00 | 82 | 1015.5 |
| 20260507072004 | 38 | 247 | 0.0 | 0.0 | 0.00 | 0.00 | 0.00 | 82 | 1015.5 |
| 20260507071529 | 55 | 60 | 0.0 | 1.0 | 0.00 | 0.01 | 0.00 | 31 | 1018.2 |
| 20260507071518 | 38 | 247 | 0.0 | 0.0 | 0.00 | 0.00 | 0.00 | 81 | 1015.6 |
| 20260507071005 | 38 | 247 | 0.0 | 0.0 | 0.00 | 0.00 | 0.00 | 81 | 1015.6 |
| 20260507070507 | 38 | 247 | 0.0 | 0.0 | 0.00 | 0.00 | 0.00 | 80 | 1015.7 |
| 20260507070022 | 38 | 247 | 0.0 | 0.0 | 0.00 | 0.00 | 0.00 | 79 | 1015.6 |
| 20260507065508 | 38 | 247 | 0.0 | 0.0 | 0.00 | 0.00 | 0.00 | 79 | 1015.6 |
| 20260507065008 | 39 | 247 | 0.0 | 0.0 | 0.00 | 0.00 | 0.00 | 79 | 1015.7 |
| 20260507064506 | 39 | 247 | 0.0 | 0.0 | 0.00 | 0.00 | 0.00 | 79 | 1015.7 |
| 20260507064504 | 55 | 77 | 0.0 | 0.0 | 0.00 | 0.01 | 0.00 | 31 | 1017.8 |
| 20260507064003 | 39 | 247 | 0.0 | 0.0 | 0.00 | 0.00 | 0.00 | 79 | 1015.7 |
| 20260507063504 | 39 | 247 | 0.0 | 0.0 | 0.00 | 0.00 | 0.00 | 78 | 1015.7 |
| 20260507063009 | 39 | 247 | 0.0 | 0.0 | 0.00 | 0.00 | 0.00 | 78 | 1015.7 |
| 20260507063001 | 55 | 61 | 1.0 | 5.0 | 0.00 | 0.01 | 0.00 | 31 | 1017.6 |
| 20260507062503 | 39 | 247 | 0.0 | 0.0 | 0.00 | 0.00 | 0.00 | 78 | 1015.7 |
| 20260507062003 | 39 | 247 | 0.0 | 0.0 | 0.00 | 0.00 | 0.00 | 77 | 1015.8 |
| 20260507061601 | 55 | 55 | 0.0 | 5.0 | 0.00 | 0.01 | 0.00 | 31 | 1017.5 |
| 20260507061514 | 39 | 247 | 0.0 | 0.0 | 0.00 | 0.00 | 0.00 | 77 | 1015.7 |
| 20260507061006 | 39 | 247 | 0.0 | 0.0 | 0.00 | 0.00 | 0.00 | 77 | 1015.7 |
| 20260507060504 | 40 | 247 | 0.0 | 0.0 | 0.00 | 0.00 | 0.00 | 77 | 1015.7 |
| 20260507060058 | 55 | 48 | 0.0 | 6.0 | 0.00 | 0.01 | 0.00 | 31 | 1017.7 |
| 20260507060017 | 40 | 247 | 0.0 | 0.0 | 0.00 | 0.00 | 0.00 | 78 | 1015.8 |
| 20260507055506 | 40 | 247 | 0.0 | 0.0 | 0.00 | 0.00 | 0.00 | 77 | 1015.8 |
| 20260507055011 | 40 | 247 | 0.0 | 0.0 | 0.00 | 0.00 | 0.00 | 77 | 1015.7 |
| 20260507054553 | 55 | 59 | 1.0 | 5.0 | 0.00 | 0.01 | 0.00 | 32 | 1017.7 |
| 20260507054522 | 40 | 247 | 0.0 | 0.0 | 0.00 | 0.00 | 0.00 | 76 | 1015.7 |
| 20260507054007 | 40 | 247 | 0.0 | 0.0 | 0.00 | 0.00 | 0.00 | 76 | 1015.7 |
| 20260507053508 | 41 | 247 | 0.0 | 0.0 | 0.00 | 0.00 | 0.00 | 75 | 1015.8 |
| 20260507053116 | 55 | 61 | 0.0 | 4.0 | 0.00 | 0.01 | 0.00 | 32 | 1017.6 |
| 20260507053007 | 41 | 247 | 0.0 | 0.0 | 0.00 | 0.00 | 0.00 | 75 | 1015.8 |
| 20260507052503 | 41 | 247 | 0.0 | 0.0 | 0.00 | 0.00 | 0.00 | 74 | 1015.8 |
| 20260507052007 | 42 | 247 | 0.0 | 0.0 | 0.00 | 0.00 | 0.00 | 74 | 1015.8 |
| 20260507051552 | 55 | 90 | 1.0 | 4.0 | 0.00 | 0.01 | 0.00 | 33 | 1017.5 |
| 20260507051512 | 42 | 247 | 0.0 | 0.0 | 0.00 | 0.00 | 0.00 | 73 | 1015.8 |
| 20260507051004 | 42 | 247 | 0.0 | 0.0 | 0.00 | 0.00 | 0.00 | 72 | 1015.8 |
| 20260507050503 | 42 | 247 | 0.0 | 0.0 | 0.00 | 0.00 | 0.00 | 71 | 1015.9 |
| 20260507050045 | 55 | 65 | 0.0 | 3.0 | 0.00 | 0.01 | 0.00 | 35 | 1017.4 |
| 20260507050015 | 43 | 247 | 0.0 | 0.0 | 0.00 | 0.00 | 0.00 | 70 | 1015.8 |
| 20260507045507 | 43 | 247 | 0.0 | 0.0 | 0.00 | 0.00 | 0.00 | 69 | 1015.8 |
| 20260507045007 | 44 | 247 | 0.0 | 0.0 | 0.00 | 0.00 | 0.00 | 68 | 1015.8 |
| 20260507044539 | 56 | 77 | 0.0 | 3.0 | 0.00 | 0.01 | 0.01 | 38 | 1017.5 |
| 20260507044518 | 44 | 247 | 0.0 | 1.0 | 0.00 | 0.00 | 0.00 | 65 | 1015.7 |
| 20260507044009 | 44 | 247 | 0.0 | 2.0 | 0.00 | 0.00 | 0.00 | 62 | 1015.6 |
| 20260507043507 | 44 | 252 | 0.0 | 2.0 | 0.00 | 0.00 | 0.00 | 56 | 1015.8 |
| 20260507043039 | 56 | 75 | 0.0 | 3.0 | 0.00 | 0.01 | 0.01 | 38 | 1017.7 |
| 20260507043026 | 44 | 257 | 0.0 | 2.0 | 0.00 | 0.00 | 0.00 | 56 | 1015.8 |
| 20260507042508 | 44 | 259 | 0.0 | 3.0 | 0.00 | 0.00 | 0.00 | 57 | 1015.8 |
| 20260507042003 | 44 | 259 | 0.0 | 3.0 | 0.00 | 0.00 | 0.00 | 55 | 1015.7 |
| 20260507041536 | 56 | 53 | 0.0 | 2.0 | 0.00 | 0.01 | 0.01 | 40 | 1017.9 |
| 20260507041510 | 45 | 259 | 0.0 | 3.0 | 0.00 | 0.00 | 0.00 | 54 | 1015.7 |
| 20260507041008 | 45 | 295 | 0.0 | 3.0 | 0.00 | 0.00 | 0.00 | 55 | 1015.7 |
| 20260507040506 | 45 | 323 | 0.0 | 3.0 | 0.00 | 0.00 | 0.00 | 54 | 1015.6 |
| 20260507040034 | 56 | 86 | 0.0 | 0.0 | 0.00 | 0.01 | 0.01 | 41 | 1017.8 |
| 20260507040013 | 45 | 49 | 0.0 | 3.0 | 0.00 | 0.00 | 0.00 | 54 | 1015.6 |
| 20260507035504 | 45 | 307 | 0.0 | 3.0 | 0.00 | 0.00 | 0.00 | 53 | 1015.6 |
| 20260507035005 | 46 | 159 | 0.0 | 3.0 | 0.00 | 0.00 | 0.00 | 54 | 1015.6 |
| 20260507034537 | 56 | 36 | 0.0 | 1.0 | 0.00 | 0.01 | 0.01 | 43 | 1017.7 |
| 20260507034525 | 46 | 265 | 0.0 | 3.0 | 0.00 | 0.00 | 0.00 | 52 | 1015.7 |
| 20260507034007 | 46 | 37 | 0.0 | 4.0 | 0.00 | 0.00 | 0.00 | 52 | 1015.6 |
| 20260507033507 | 46 | 264 | 0.0 | 4.0 | 0.00 | 0.00 | 0.00 | 52 | 1015.6 |
| 20260507033039 | 55 | 333 | 0.0 | 1.0 | 0.00 | 0.01 | 0.01 | 50 | 1017.7 |
| 20260507033022 | 46 | 259 | 1.0 | 3.0 | 0.00 | 0.00 | 0.00 | 50 | 1015.6 |
| 20260507032507 | 46 | 271 | 0.0 | 4.0 | 0.00 | 0.00 | 0.00 | 51 | 1015.6 |
| 20260507032007 | 46 | 269 | 0.0 | 4.0 | 0.00 | 0.00 | 0.00 | 50 | 1015.6 |
| 20260507031526 | 56 | 333 | 0.0 | 0.0 | 0.00 | 0.01 | 0.01 | 50 | 1017.4 |
| 20260507031007 | 47 | 290 | 1.0 | 6.0 | 0.00 | 0.00 | 0.00 | 48 | 1015.7 |
| 20260507030504 | 47 | 274 | 1.0 | 5.0 | 0.00 | 0.00 | 0.00 | 49 | 1015.7 |
| 20260507030027 | 56 | 333 | 0.0 | 0.0 | 0.00 | 0.01 | 0.01 | 51 | 1017.4 |
| 20260507030017 | 47 | 284 | 1.0 | 8.0 | 0.00 | 0.00 | 0.00 | 49 | 1015.7 |
| 20260507025505 | 47 | 338 | 2.0 | 8.0 | 0.00 | 0.00 | 0.00 | 48 | 1015.5 |
| 20260507025004 | 47 | 271 | 1.0 | 8.0 | 0.00 | 0.00 | 0.00 | 47 | 1015.7 |
| 20260507024530 | 47 | 284 | 3.0 | 8.0 | 0.00 | 0.00 | 0.00 | 47 | 1015.6 |
| 20260507024520 | 57 | 333 | 0.0 | 0.0 | 0.00 | 0.01 | 0.01 | 53 | 1017.1 |
| 20260507024004 | 47 | 309 | 0.0 | 6.0 | 0.00 | 0.00 | 0.00 | 47 | 1015.6 |
| 20260507023508 | 47 | 280 | 1.0 | 6.0 | 0.00 | 0.00 | 0.00 | 46 | 1015.6 |
| 20260507023023 | 57 | 333 | 0.0 | 0.0 | 0.00 | 0.01 | 0.01 | 54 | 1016.6 |
| 20260507023018 | 48 | 267 | 2.0 | 5.0 | 0.00 | 0.00 | 0.00 | 46 | 1015.5 |
| 20260507022508 | 48 | 325 | 2.0 | 5.0 | 0.00 | 0.00 | 0.00 | 46 | 1015.4 |
| 20260507022010 | 48 | 315 | 1.0 | 4.0 | 0.00 | 0.00 | 0.00 | 46 | 1015.4 |
| 20260507021524 | 48 | 252 | 2.0 | 6.0 | 0.00 | 0.00 | 0.00 | 45 | 1015.3 |
| 20260507021513 | 57 | 333 | 0.0 | 1.0 | 0.00 | 0.01 | 0.01 | 55 | 1016.4 |
| 20260507021009 | 48 | 291 | 1.0 | 6.0 | 0.00 | 0.00 | 0.00 | 45 | 1015.1 |
| 20260507020507 | 48 | 338 | 1.0 | 7.0 | 0.00 | 0.00 | 0.00 | 44 | 1015.1 |
| 20260507020028 | 48 | 286 | 2.0 | 7.0 | 0.00 | 0.00 | 0.00 | 44 | 1015.0 |
| 20260507020015 | 58 | 324 | 0.0 | 0.0 | 0.00 | 0.01 | 0.01 | 55 | 1016.1 |
| 20260507015514 | 48 | 275 | 2.0 | 10.0 | 0.00 | 0.00 | 0.00 | 44 | 1014.9 |
| 20260507015004 | 48 | 288 | 4.0 | 10.0 | 0.00 | 0.00 | 0.00 | 43 | 1014.9 |
| 20260507014528 | 49 | 302 | 4.0 | 9.0 | 0.00 | 0.00 | 0.00 | 43 | 1014.8 |
| 20260507014510 | 58 | 334 | 0.0 | 0.0 | 0.00 | 0.01 | 0.01 | 55 | 1015.8 |
| 20260507014004 | 49 | 280 | 3.0 | 12.0 | 0.00 | 0.00 | 0.00 | 43 | 1014.7 |
| 20260507013504 | 49 | 265 | 2.0 | 12.0 | 0.00 | 0.00 | 0.00 | 43 | 1014.7 |
| 20260507013017 | 49 | 266 | 6.0 | 12.0 | 0.00 | 0.00 | 0.00 | 42 | 1014.7 |
| 20260507013002 | 59 | 348 | 0.0 | 0.0 | 0.00 | 0.01 | 0.01 | 54 | 1015.4 |
| 20260507012509 | 49 | 258 | 3.0 | 12.0 | 0.00 | 0.00 | 0.00 | 42 | 1014.7 |
| 20260507012008 | 49 | 200 | 5.0 | 11.0 | 0.00 | 0.00 | 0.00 | 42 | 1014.6 |
| 20260507011535 | 50 | 240 | 6.0 | 11.0 | 0.00 | 0.00 | 0.00 | 42 | 1014.7 |
| 20260507011504 | 60 | 336 | 0.0 | 2.0 | 0.00 | 0.01 | 0.01 | 53 | 1015.1 |
| 20260507011008 | 50 | 259 | 5.0 | 11.0 | 0.00 | 0.00 | 0.00 | 42 | 1014.7 |
| 20260507010510 | 50 | 273 | 6.0 | 11.0 | 0.00 | 0.00 | 0.00 | 42 | 1014.5 |
| 20260507010112 | 61 | 345 | 0.0 | 0.0 | 0.00 | 0.01 | 0.01 | 53 | 1014.8 |
| 20260507010025 | 50 | 261 | 5.0 | 9.0 | 0.00 | 0.00 | 0.00 | 42 | 1014.5 |
| 20260507005509 | 50 | 280 | 4.0 | 13.0 | 0.00 | 0.00 | 0.00 | 41 | 1014.5 |
| 20260507005016 | 50 | 37 | 5.0 | 15.0 | 0.00 | 0.00 | 0.00 | 41 | 1014.4 |
| 20260507004612 | 61 | 322 | 0.0 | 0.0 | 0.00 | 0.01 | 0.01 | 52 | 1014.8 |
| 20260507004526 | 51 | 269 | 8.0 | 18.0 | 0.00 | 0.00 | 0.00 | 41 | 1014.6 |
| 20260507004005 | 51 | 277 | 4.0 | 18.0 | 0.00 | 0.00 | 0.00 | 41 | 1014.4 |
| 20260507003505 | 51 | 287 | 5.0 | 17.0 | 0.00 | 0.00 | 0.00 | 41 | 1014.4 |
| 20260507003058 | 61 | 300 | 1.0 | 6.0 | 0.00 | 0.01 | 0.01 | 52 | 1014.6 |
| 20260507003018 | 52 | 255 | 7.0 | 18.0 | 0.00 | 0.00 | 0.00 | 40 | 1014.5 |
| 20260507002505 | 52 | 272 | 8.0 | 18.0 | 0.00 | 0.00 | 0.00 | 40 | 1014.5 |
| 20260507002008 | 52 | 285 | 9.0 | 16.0 | 0.00 | 0.00 | 0.00 | 40 | 1014.4 |
| 20260507001556 | 61 | 281 | 1.0 | 6.0 | 0.00 | 0.01 | 0.01 | 52 | 1014.6 |
| 20260507001519 | 52 | 304 | 8.0 | 17.0 | 0.00 | 0.00 | 0.00 | 40 | 1014.2 |
| 20260507001005 | 52 | 267 | 6.0 | 17.0 | 0.00 | 0.00 | 0.00 | 40 | 1014.0 |
| 20260507000508 | 52 | 229 | 7.0 | 14.0 | 0.00 | 0.00 | 0.00 | 39 | 1014.1 |
| 20260507000054 | 61 | 290 | 3.0 | 7.0 | 0.00 | 0.01 | 0.01 | 52 | 1014.6 |
| 20260507000023 | 52 | 291 | 4.0 | 14.0 | 0.00 | 0.00 | 0.00 | 40 | 1013.9 |
| 20260506235509 | 53 | 279 | 3.0 | 19.0 | 0.00 | 0.00 | 0.00 | 40 | 1014.1 |
| 20260506235009 | 53 | 259 | 9.0 | 19.0 | 0.00 | 0.00 | 0.00 | 39 | 1014.1 |
| 20260506234553 | 61 | 322 | 1.0 | 6.0 | 0.00 | 0.01 | 0.01 | 52 | 1014.5 |
| 20260506234528 | 53 | 11 | 7.0 | 18.0 | 0.00 | 0.00 | 0.00 | 40 | 1013.9 |
| 20260506234011 | 53 | 247 | 9.0 | 18.0 | 0.00 | 0.00 | 0.00 | 39 | 1013.8 |
| 20260506233510 | 53 | 282 | 7.0 | 15.0 | 0.00 | 0.00 | 0.00 | 39 | 1013.8 |
| 20260506233055 | 61 | 355 | 3.0 | 7.0 | 0.00 | 0.01 | 0.01 | 51 | 1014.4 |
| 20260506233026 | 54 | 234 | 8.0 | 18.0 | 0.00 | 0.00 | 0.00 | 39 | 1013.9 |
| 20260506232508 | 54 | 332 | 6.0 | 18.0 | 0.00 | 0.00 | 0.00 | 38 | 1013.8 |
| 20260506232005 | 54 | 229 | 5.0 | 14.0 | 0.00 | 0.00 | 0.00 | 39 | 1013.9 |
| 20260506231547 | 61 | 300 | 3.0 | 6.0 | 0.00 | 0.01 | 0.01 | 52 | 1014.2 |
| 20260506231521 | 54 | 262 | 9.0 | 16.0 | 0.00 | 0.00 | 0.00 | 38 | 1013.8 |
| 20260506231009 | 54 | 275 | 8.0 | 16.0 | 0.00 | 0.00 | 0.00 | 39 | 1013.8 |
| 20260506230505 | 54 | 279 | 7.0 | 16.0 | 0.00 | 0.00 | 0.00 | 39 | 1013.6 |
| 20260506230044 | 61 | 322 | 1.0 | 6.0 | 0.00 | 0.01 | 0.01 | 51 | 1013.8 |
| 20260506230028 | 54 | 225 | 5.0 | 17.0 | 0.00 | 0.00 | 0.00 | 39 | 1013.7 |
| 20260506225506 | 54 | 303 | 8.0 | 17.0 | 0.00 | 0.00 | 0.00 | 38 | 1013.6 |
| 20260506225012 | 54 | 230 | 4.0 | 15.0 | 0.00 | 0.00 | 0.00 | 40 | 1013.5 |
| 20260506224542 | 61 | 302 | 3.0 | 7.0 | 0.00 | 0.01 | 0.01 | 51 | 1013.9 |
| 20260506224524 | 54 | 259 | 7.0 | 15.0 | 0.00 | 0.00 | 0.00 | 40 | 1013.6 |
| 20260506224012 | 54 | 252 | 3.0 | 17.0 | 0.00 | 0.00 | 0.00 | 40 | 1013.4 |
| 20260506223507 | 54 | 275 | 8.0 | 17.0 | 0.00 | 0.00 | 0.00 | 39 | 1013.4 |
| 20260506223039 | 61 | 349 | 3.0 | 8.0 | 0.00 | 0.01 | 0.01 | 51 | 1013.5 |
| 20260506223026 | 54 | 305 | 7.0 | 17.0 | 0.00 | 0.00 | 0.00 | 39 | 1013.4 |
| 20260506222509 | 54 | 291 | 9.0 | 17.0 | 0.00 | 0.00 | 0.00 | 39 | 1013.5 |
| 20260506222015 | 54 | 271 | 8.0 | 15.0 | 0.00 | 0.00 | 0.00 | 38 | 1013.4 |
| 20260506221538 | 61 | 330 | 4.0 | 9.0 | 0.00 | 0.01 | 0.01 | 51 | 1013.5 |
| 20260506221528 | 54 | 296 | 9.0 | 15.0 | 0.00 | 0.00 | 0.00 | 39 | 1013.4 |
| 20260506221007 | 54 | 315 | 6.0 | 25.0 | 0.00 | 0.00 | 0.00 | 40 | 1013.8 |
| 20260506220503 | 55 | 279 | 10.0 | 25.0 | 0.00 | 0.00 | 0.00 | 39 | 1013.4 |
| 20260506220039 | 61 | 307 | 3.0 | 6.0 | 0.00 | 0.01 | 0.01 | 51 | 1013.9 |
| 20260506220022 | 55 | 32 | 5.0 | 14.0 | 0.00 | 0.00 | 0.00 | 40 | 1013.3 |
| 20260506215506 | 55 | 234 | 6.0 | 14.0 | 0.00 | 0.00 | 0.00 | 40 | 1013.3 |
| 20260506215007 | 54 | 279 | 3.0 | 17.0 | 0.00 | 0.00 | 0.00 | 41 | 1013.2 |
| 20260506214538 | 61 | 300 | 3.0 | 9.0 | 0.00 | 0.01 | 0.01 | 51 | 1013.6 |
| 20260506214523 | 55 | 304 | 9.0 | 17.0 | 0.00 | 0.00 | 0.00 | 38 | 1013.1 |
| 20260506214007 | 56 | 259 | 7.0 | 17.0 | 0.00 | 0.00 | 0.00 | 38 | 1013.1 |
| 20260506213507 | 56 | 253 | 6.0 | 14.0 | 0.00 | 0.00 | 0.00 | 38 | 1013.1 |
| 20260506213033 | 61 | 309 | 2.0 | 8.0 | 0.00 | 0.01 | 0.01 | 49 | 1014.0 |
| 20260506213024 | 56 | 257 | 7.0 | 16.0 | 0.00 | 0.00 | 0.00 | 38 | 1013.0 |
| 20260506212506 | 56 | 239 | 8.0 | 16.0 | 0.00 | 0.00 | 0.00 | 38 | 1012.9 |
| 20260506212010 | 55 | 304 | 6.0 | 13.0 | 0.00 | 0.00 | 0.00 | 40 | 1013.0 |
| 20260506211532 | 60 | 351 | 2.0 | 6.0 | 0.00 | 0.01 | 0.01 | 49 | 1014.3 |
| 20260506211530 | 55 | 250 | 6.0 | 16.0 | 0.00 | 0.00 | 0.00 | 39 | 1013.1 |
| 20260506211004 | 55 | 288 | 7.0 | 16.0 | 0.00 | 0.00 | 0.00 | 39 | 1013.1 |
| 20260506210507 | 55 | 267 | 6.0 | 16.0 | 0.00 | 0.00 | 0.00 | 39 | 1013.1 |
| 20260506210026 | 59 | 331 | 1.0 | 7.0 | 0.00 | 0.01 | 0.01 | 50 | 1014.1 |
| 20260506210016 | 55 | 317 | 9.0 | 16.0 | 0.00 | 0.00 | 0.00 | 37 | 1013.1 |
| 20260506205508 | 56 | 280 | 7.0 | 16.0 | 0.00 | 0.00 | 0.00 | 37 | 1013.0 |
| 20260506205006 | 56 | 221 | 4.0 | 12.0 | 0.00 | 0.00 | 0.00 | 37 | 1012.9 |
| 20260506204524 | 59 | 304 | 3.0 | 8.0 | 0.00 | 0.01 | 0.01 | 47 | 1014.1 |
| 20260506204505 | 56 | 281 | 5.0 | 14.0 | 0.00 | 0.00 | 0.00 | 35 | 1012.8 |
| 20260506204003 | 56 | 263 | 7.0 | 14.0 | 0.00 | 0.00 | 0.00 | 34 | 1013.0 |
| 20260506203503 | 57 | 256 | 6.0 | 17.0 | 0.00 | 0.00 | 0.00 | 33 | 1013.1 |
| 20260506203022 | 58 | 301 | 3.0 | 7.0 | 0.00 | 0.01 | 0.01 | 48 | 1014.4 |
| 20260506203010 | 57 | 219 | 7.0 | 18.0 | 0.00 | 0.00 | 0.00 | 33 | 1013.1 |
| 20260506202503 | 57 | 237 | 7.0 | 18.0 | 0.00 | 0.00 | 0.00 | 34 | 1013.0 |
| 20260506202003 | 57 | 233 | 7.0 | 16.0 | 0.00 | 0.00 | 0.00 | 35 | 1013.1 |
| 20260506201521 | 58 | 308 | 4.0 | 8.0 | 0.00 | 0.01 | 0.01 | 46 | 1014.7 |
| 20260506201512 | 57 | 296 | 6.0 | 16.0 | 0.00 | 0.00 | 0.00 | 33 | 1013.1 |
| 20260506201003 | 58 | 231 | 8.0 | 16.0 | 0.00 | 0.00 | 0.00 | 33 | 1013.2 |
| 20260506200506 | 58 | 198 | 9.0 | 16.0 | 0.00 | 0.00 | 0.00 | 33 | 1013.3 |
| 20260506200021 | 57 | 255 | 3.0 | 9.0 | 0.00 | 0.01 | 0.01 | 46 | 1014.6 |
| 20260506200016 | 58 | 283 | 7.0 | 17.0 | 0.00 | 0.00 | 0.00 | 32 | 1013.3 |
| 20260506195504 | 57 | 220 | 7.0 | 17.0 | 0.00 | 0.00 | 0.00 | 33 | 1013.6 |
| 20260506195007 | 57 | 261 | 6.0 | 18.0 | 0.00 | 0.00 | 0.00 | 35 | 1013.4 |
| 20260506194522 | 56 | 256 | 7.0 | 18.0 | 0.00 | 0.00 | 0.00 | 35 | 1013.6 |
| 20260506194515 | 56 | 293 | 5.0 | 10.0 | 0.00 | 0.01 | 0.01 | 45 | 1014.5 |
| 20260506194006 | 56 | 290 | 9.0 | 17.0 | 0.00 | 0.00 | 0.00 | 35 | 1013.6 |
| 20260506193505 | 55 | 298 | 5.0 | 14.0 | 0.00 | 0.00 | 0.00 | 38 | 1013.5 |
| 20260506193012 | 56 | 277 | 5.0 | 12.0 | 0.00 | 0.01 | 0.01 | 45 | 1014.5 |
| 20260506193004 | 55 | 257 | 7.0 | 13.0 | 0.00 | 0.00 | 0.00 | 37 | 1013.5 |
| 20260506192503 | 55 | 265 | 4.0 | 13.0 | 0.00 | 0.00 | 0.00 | 38 | 1013.6 |
| 20260506192003 | 55 | 312 | 4.0 | 13.0 | 0.00 | 0.00 | 0.00 | 37 | 1013.6 |
| 20260506191511 | 56 | 278 | 7.0 | 14.0 | 0.00 | 0.01 | 0.01 | 44 | 1014.7 |
| 20260506191506 | 55 | 242 | 5.0 | 13.0 | 0.00 | 0.00 | 0.00 | 37 | 1013.8 |
| 20260506191004 | 55 | 265 | 4.0 | 12.0 | 0.00 | 0.00 | 0.00 | 37 | 1013.7 |
| 20260506190505 | 55 | 225 | 4.0 | 14.0 | 0.00 | 0.00 | 0.00 | 37 | 1013.7 |
| 20260506190014 | 55 | 280 | 6.0 | 15.0 | 0.00 | 0.00 | 0.00 | 36 | 1013.7 |
| 20260506190007 | 56 | 304 | 8.0 | 13.0 | 0.00 | 0.01 | 0.01 | 44 | 1014.5 |
| 20260506185503 | 55 | 275 | 8.0 | 15.0 | 0.00 | 0.00 | 0.00 | 37 | 1013.8 |
| 20260506185006 | 55 | 263 | 7.0 | 12.0 | 0.00 | 0.00 | 0.00 | 37 | 1013.7 |
| 20260506184524 | 55 | 198 | 6.0 | 17.0 | 0.00 | 0.00 | 0.00 | 37 | 1013.8 |
| 20260506184506 | 56 | 329 | 7.0 | 15.0 | 0.00 | 0.01 | 0.01 | 44 | 1014.8 |
| 20260506184006 | 55 | 240 | 5.0 | 17.0 | 0.00 | 0.00 | 0.00 | 37 | 1013.7 |
| 20260506183507 | 55 | 236 | 5.0 | 13.0 | 0.00 | 0.00 | 0.00 | 38 | 1013.6 |
| 20260506183125 | 56 | 295 | 6.0 | 9.0 | 0.00 | 0.01 | 0.01 | 41 | 1014.9 |
| 20260506183022 | 55 | 239 | 2.0 | 15.0 | 0.00 | 0.00 | 0.00 | 39 | 1013.6 |
| 20260506182507 | 55 | 244 | 3.0 | 17.0 | 0.00 | 0.00 | 0.00 | 38 | 1013.6 |
| 20260506182002 | 55 | 267 | 8.0 | 17.0 | 0.00 | 0.00 | 0.00 | 37 | 1013.8 |
| 20260506181507 | 55 | 226 | 4.0 | 17.0 | 0.00 | 0.00 | 0.00 | 37 | 1013.7 |
| 20260506181501 | 56 | 297 | 6.0 | 10.0 | 0.00 | 0.01 | 0.01 | 42 | 1014.9 |
| 20260506181004 | 55 | 277 | 9.0 | 16.0 | 0.00 | 0.00 | 0.00 | 37 | 1013.8 |
| 20260506180503 | 55 | 231 | 5.0 | 14.0 | 0.00 | 0.00 | 0.00 | 37 | 1013.7 |
| 20260506180116 | 55 | 314 | 5.0 | 13.0 | 0.00 | 0.01 | 0.01 | 42 | 1015.1 |
| 20260506180011 | 55 | 281 | 7.0 | 14.0 | 0.00 | 0.00 | 0.00 | 37 | 1013.5 |
| 20260506175504 | 55 | 290 | 4.0 | 13.0 | 0.00 | 0.00 | 0.00 | 37 | 1013.4 |
| 20260506175004 | 55 | 279 | 5.0 | 15.0 | 0.00 | 0.00 | 0.00 | 37 | 1013.7 |
| 20260506174656 | 55 | 313 | 5.0 | 9.0 | 0.00 | 0.01 | 0.01 | 42 | 1015.0 |
| 20260506174516 | 55 | 259 | 8.0 | 15.0 | 0.00 | 0.00 | 0.00 | 37 | 1013.9 |
| 20260506174004 | 55 | 267 | 6.0 | 14.0 | 0.00 | 0.00 | 0.00 | 38 | 1014.0 |
| 20260506173505 | 55 | 289 | 5.0 | 17.0 | 0.00 | 0.00 | 0.00 | 37 | 1013.9 |
| 20260506173124 | 55 | 307 | 2.0 | 6.0 | 0.00 | 0.01 | 0.01 | 42 | 1015.0 |
| 20260506173022 | 55 | 277 | 3.0 | 17.0 | 0.00 | 0.00 | 0.00 | 36 | 1014.0 |
| 20260506172508 | 56 | 213 | 5.0 | 17.0 | 0.00 | 0.00 | 0.00 | 37 | 1014.0 |
| 20260506172008 | 56 | 275 | 6.0 | 12.0 | 0.00 | 0.00 | 0.00 | 37 | 1013.9 |
| 20260506171551 | 55 | 8 | 0.0 | 8.0 | 0.00 | 0.01 | 0.01 | 42 | 1014.6 |
| 20260506171525 | 55 | 232 | 5.0 | 12.0 | 0.00 | 0.00 | 0.00 | 39 | 1014.0 |
| 20260506171009 | 54 | 252 | 5.0 | 16.0 | 0.00 | 0.00 | 0.00 | 38 | 1014.0 |
| 20260506170502 | 54 | 256 | 7.0 | 16.0 | 0.00 | 0.00 | 0.00 | 37 | 1014.2 |
| 20260506170048 | 55 | 304 | 6.0 | 16.0 | 0.00 | 0.01 | 0.01 | 42 | 1013.2 |
| 20260506170011 | 54 | 261 | 8.0 | 16.0 | 0.00 | 0.00 | 0.00 | 37 | 1014.2 |
| 20260506165503 | 55 | 258 | 3.0 | 14.0 | 0.00 | 0.00 | 0.00 | 37 | 1014.1 |
| 20260506165005 | 55 | 279 | 7.0 | 14.0 | 0.00 | 0.00 | 0.00 | 37 | 1014.2 |
| 20260506164648 | 54 | 334 | 6.0 | 13.0 | 0.00 | 0.01 | 0.01 | 38 | 1013.1 |
| 20260506164512 | 55 | 282 | 5.0 | 12.0 | 0.00 | 0.00 | 0.00 | 38 | 1014.1 |
| 20260506164004 | 55 | 244 | 6.0 | 13.0 | 0.00 | 0.00 | 0.00 | 38 | 1014.1 |
| 20260506163503 | 55 | 267 | 7.0 | 13.0 | 0.00 | 0.00 | 0.00 | 39 | 1014.1 |
| 20260506163045 | 54 | 13 | 5.0 | 10.0 | 0.00 | 0.01 | 0.01 | 37 | 1013.8 |
| 20260506163022 | 54 | 223 | 5.0 | 10.0 | 0.00 | 0.00 | 0.00 | 39 | 1013.9 |
| 20260506162507 | 54 | 234 | 5.0 | 10.0 | 0.00 | 0.00 | 0.00 | 37 | 1014.0 |
| 20260506162010 | 54 | 284 | 3.0 | 11.0 | 0.00 | 0.00 | 0.00 | 38 | 1013.9 |
| 20260506161550 | 53 | 344 | 2.0 | 7.0 | 0.01 | 0.01 | 0.01 | 38 | 1014.9 |
| 20260506161524 | 54 | 284 | 5.0 | 11.0 | 0.00 | 0.00 | 0.00 | 38 | 1014.0 |
| 20260506161007 | 54 | 252 | 4.0 | 12.0 | 0.00 | 0.00 | 0.00 | 39 | 1013.9 |
| 20260506160507 | 54 | 295 | 5.0 | 12.0 | 0.00 | 0.00 | 0.00 | 38 | 1013.9 |
| 20260506160039 | 53 | 51 | 3.0 | 8.0 | 0.01 | 0.01 | 0.01 | 39 | 1014.0 |
| 20260506160026 | 53 | 255 | 4.0 | 11.0 | 0.00 | 0.00 | 0.00 | 37 | 1014.0 |
| 20260506155508 | 54 | 333 | 5.0 | 11.0 | 0.00 | 0.00 | 0.00 | 38 | 1014.1 |
| 20260506155003 | 54 | 238 | 4.0 | 12.0 | 0.00 | 0.00 | 0.00 | 39 | 1014.0 |
| 20260506154537 | 53 | 324 | 6.0 | 10.0 | 0.01 | 0.01 | 0.01 | 40 | 1013.6 |
| 20260506154511 | 54 | 294 | 5.0 | 14.0 | 0.00 | 0.00 | 0.00 | 38 | 1014.0 |
| 20260506154003 | 54 | 283 | 4.0 | 14.0 | 0.00 | 0.00 | 0.00 | 37 | 1014.1 |
| 20260506153502 | 53 | 158 | 2.0 | 13.0 | 0.00 | 0.00 | 0.00 | 40 | 1014.0 |
| 20260506153033 | 53 | 20 | 1.0 | 6.0 | 0.01 | 0.01 | 0.01 | 47 | 1013.3 |
| 20260506153016 | 53 | 305 | 2.0 | 13.0 | 0.00 | 0.00 | 0.00 | 38 | 1013.9 |
| 20260506152504 | 53 | 267 | 5.0 | 13.0 | 0.00 | 0.00 | 0.00 | 40 | 1014.1 |
| 20260506152008 | 53 | 113 | 3.0 | 10.0 | 0.00 | 0.00 | 0.00 | 39 | 1014.2 |
| 20260506151531 | 53 | 65 | 3.0 | 8.0 | 0.00 | 0.00 | 0.00 | 52 | 1011.7 |
| 20260506151522 | 53 | 273 | 2.0 | 12.0 | 0.00 | 0.00 | 0.00 | 39 | 1014.1 |
| 20260506151008 | 53 | 263 | 6.0 | 12.0 | 0.00 | 0.00 | 0.00 | 38 | 1014.2 |
| 20260506150508 | 53 | 229 | 2.0 | 14.0 | 0.00 | 0.00 | 0.00 | 39 | 1014.1 |
| 20260506150026 | 53 | 267 | 7.0 | 14.0 | 0.00 | 0.00 | 0.00 | 39 | 1014.2 |
| 20260506145517 | 53 | 237 | 4.0 | 11.0 | 0.00 | 0.00 | 0.00 | 38 | 1014.2 |
| 20260506145010 | 52 | 287 | 5.0 | 11.0 | 0.00 | 0.00 | 0.00 | 40 | 1014.1 |
| 20260506144541 | 52 | 265 | 4.0 | 13.0 | 0.00 | 0.00 | 0.00 | 39 | 1014.2 |
| 20260506144522 | 54 | 302 | 5.0 | 9.0 | 0.00 | 0.00 | 0.00 | 59 | 1015.2 |
| 20260506144004 | 52 | 285 | 3.0 | 13.0 | 0.00 | 0.00 | 0.00 | 39 | 1014.3 |
| 20260506143504 | 52 | 273 | 7.0 | 12.0 | 0.00 | 0.00 | 0.00 | 38 | 1014.3 |
| 20260506143023 | 55 | 296 | 5.0 | 11.0 | 0.00 | 0.00 | 0.00 | 58 | 1014.2 |
| 20260506143015 | 53 | 234 | 5.0 | 11.0 | 0.00 | 0.00 | 0.00 | 38 | 1014.3 |
| 20260506142504 | 53 | 268 | 4.0 | 9.0 | 0.00 | 0.00 | 0.00 | 41 | 1014.3 |
| 20260506142004 | 53 | 204 | 5.0 | 9.0 | 0.00 | 0.00 | 0.00 | 41 | 1014.3 |
| 20260506141517 | 52 | 220 | 4.0 | 9.0 | 0.00 | 0.00 | 0.00 | 39 | 1014.4 |
| 20260506141514 | 55 | 281 | 8.0 | 15.0 | 0.00 | 0.00 | 0.00 | 57 | 1015.3 |
| 20260506141009 | 52 | 200 | 2.0 | 6.0 | 0.00 | 0.00 | 0.00 | 42 | 1014.2 |
| 20260506140505 | 52 | 202 | 2.0 | 6.0 | 0.00 | 0.00 | 0.00 | 41 | 1014.2 |
| 20260506140036 | 52 | 275 | 1.0 | 5.0 | 0.00 | 0.00 | 0.00 | 42 | 1014.2 |
| 20260506140009 | 56 | 278 | 9.0 | 14.0 | 0.00 | 0.00 | 0.00 | 57 | 1014.2 |
| 20260506135507 | 52 | 252 | 0.0 | 5.0 | 0.00 | 0.00 | 0.00 | 43 | 1014.1 |
| 20260506135014 | 52 | 186 | 1.0 | 4.0 | 0.00 | 0.00 | 0.00 | 45 | 1014.1 |
| 20260506134531 | 51 | 195 | 0.0 | 4.0 | 0.00 | 0.00 | 0.00 | 45 | 1014.0 |
| 20260506134503 | 56 | 323 | 4.0 | 10.0 | 0.00 | 0.00 | 0.00 | 56 | 1013.0 |
| 20260506134006 | 51 | 243 | 0.0 | 4.0 | 0.00 | 0.00 | 0.00 | 47 | 1013.9 |
| 20260506133509 | 51 | 202 | 0.0 | 4.0 | 0.00 | 0.00 | 0.00 | 49 | 1013.8 |
| 20260506133101 | 57 | 324 | 4.0 | 10.0 | 0.00 | 0.00 | 0.00 | 56 | 1012.6 |
| 20260506133028 | 50 | 216 | 0.0 | 2.0 | 0.00 | 0.00 | 0.00 | 51 | 1013.7 |
| 20260506132503 | 50 | 197 | 0.0 | 2.0 | 0.00 | 0.00 | 0.00 | 52 | 1013.6 |
| 20260506132003 | 50 | 214 | 0.0 | 2.0 | 0.00 | 0.00 | 0.00 | 53 | 1013.6 |
| 20260506131557 | 57 | 311 | 3.0 | 8.0 | 0.00 | 0.00 | 0.00 | 57 | 1012.5 |
| 20260506131519 | 49 | 244 | 0.0 | 2.0 | 0.00 | 0.00 | 0.00 | 56 | 1013.5 |
| 20260506131007 | 49 | 244 | 0.0 | 2.0 | 0.00 | 0.00 | 0.00 | 57 | 1013.6 |
| 20260506130507 | 49 | 244 | 0.0 | 1.0 | 0.00 | 0.00 | 0.00 | 61 | 1013.7 |
| 20260506130053 | 57 | 306 | 3.0 | 11.0 | 0.00 | 0.00 | 0.00 | 57 | 1012.2 |
| 20260506130018 | 48 | 244 | 0.0 | 2.0 | 0.00 | 0.00 | 0.00 | 63 | 1013.7 |
| 20260506125508 | 47 | 244 | 0.0 | 2.0 | 0.00 | 0.00 | 0.00 | 64 | 1013.6 |
| 20260506125007 | 47 | 244 | 0.0 | 2.0 | 0.00 | 0.01 | 0.00 | 66 | 1013.5 |
| 20260506124548 | 57 | 333 | 6.0 | 12.0 | 0.00 | 0.00 | 0.00 | 57 | 1011.8 |
| 20260506124523 | 46 | 309 | 0.0 | 1.0 | 0.00 | 0.01 | 0.00 | 69 | 1013.3 |
| 20260506124007 | 46 | 309 | 0.0 | 1.0 | 0.00 | 0.01 | 0.00 | 70 | 1013.2 |
| 20260506123507 | 46 | 309 | 0.0 | 1.0 | 0.00 | 0.02 | 0.00 | 71 | 1013.1 |
| 20260506123043 | 0 | 0.0 | 0.0 | 0.00 | 0.00 | 0.00 | 1011.8 | ||
| 20260506123036 | 45 | 309 | 0.0 | 1.0 | 0.00 | 0.02 | 0.00 | 72 | 1013.2 |
| 20260506122510 | 45 | 309 | 0.0 | 1.0 | 0.00 | 0.02 | 0.00 | 73 | 1013.1 |
| 20260506122012 | 45 | 309 | 0.0 | 1.0 | 0.00 | 0.02 | 0.00 | 73 | 1013.1 |
| 20260506121538 | 0 | 0.0 | 0.0 | 0.00 | 0.00 | 0.00 | 1011.5 | ||
| 20260506121512 | 45 | 309 | 0.0 | 1.0 | 0.00 | 0.02 | 0.00 | 74 | 1012.9 |
| 20260506121003 | 44 | 309 | 0.0 | 0.0 | 0.00 | 0.03 | 0.00 | 76 | 1013.0 |
| 20260506120503 | 44 | 309 | 0.0 | 0.0 | 0.00 | 0.03 | 0.00 | 77 | 1012.9 |
| 20260506120032 | 0 | 0.0 | 0.0 | 0.00 | 0.00 | 0.00 | 1011.3 | ||
| 20260506120026 | 44 | 309 | 0.0 | 0.0 | 0.00 | 0.04 | 0.00 | 79 | 1012.9 |